Location: Unspecified
(0.0000°N, 0.0000°E)
Time: 03:44:16
(UTC+00:00)

ITAMSAT 1 - Visible Passes

Search period start: 26 April 2018 00:00
Search period end: 06 May 2018 00:00
Orbit: 783 x 797 km, 98.9° (Epoch: 25 April)

Date Brightness Start Highest point End Pass type
(mag) Time Alt. Az. Time Alt. Az. Time Alt. Az.
26 Apr 9.0 03:42:35 10° NNE 03:45:13 31° NNE 03:45:13 31° NNE visible
27 Apr 9.8 03:13:43 10° NE 03:15:33 21° NE 03:15:33 21° NE visible
27 Apr 9.6 04:55:21 10° NW 04:56:17 12° WNW 04:56:17 12° WNW visible
28 Apr 8.9 04:23:53 10° NNW 04:26:37 24° NW 04:26:37 24° NW visible
29 Apr 8.6 03:53:54 10° N 03:56:56 36° N 03:56:56 36° N visible
30 Apr 9.4 03:24:43 10° NNE 03:27:15 28° NE 03:27:15 28° NE visible
01 May 10.3 02:56:27 10° NE 02:57:34 15° ENE 02:57:34 15° ENE visible
01 May 9.1 04:35:40 10° NNW 04:38:19 20° NW 04:38:19 20° NW visible
02 May 8.5 04:05:18 10° N 04:08:37 36° NNW 04:08:37 36° NNW visible
03 May 8.8 03:35:50 10° NNE 03:38:56 37° NNE 03:38:56 37° NNE visible
04 May 9.9 03:07:11 10° NE 03:09:15 21° ENE 03:09:15 21° ENE visible
04 May 9.3 04:47:42 10° NW 04:49:59 16° WNW 04:49:59 16° WNW visible
05 May 8.5 04:16:49 10° N 04:20:17 32° NW 04:20:17 32° NW visible
